カタログに戻る

METEOR 2-5 DEB

運用中PO
NORAD 45511·DEBRIS·🇷🇺 Russia

打ち上げ Oct 31, 1979 から Plesetsk Cosmodrome

Loading…

次のパス (今後24時間)

TLE

最新Source: Space-Track

元期: Sep 13, 2026, 21:22 UTC

1 45511U 79095CT  26256.89029812  .00002987  00000-0  12981-2 0  9995
2 45511  81.2170 119.4919 0010957 298.4517  61.5557 14.23892007452375

AllMySatでMETEOR 2-5 DEBをリアルタイム追跡

Download on the App Store